Total_Precipitation_Accumulation
0.29 0.48 0.46 0.30 0.30 0.28 0.24 0.24 0.17 0.07 0.06 0.15 0.14 0.10 0.07 0.07 0.10 0.10 0.09 0.11 0.10 0.07 0.07 0.08 0.12 0.19 0.25 0.28 0.33 0.38 0.46 0.57 0.70 0.78 0.90 0.89 0.83 0.69 0.63 0.55 0.47 0.40 0.34 0.29
0.39 0.41 0.23 0.16 0.18 0.22 0.27 0.31 0.22 0.12 0.08 0.17 0.16 0.10 0.07 0.07 0.10 0.11 0.10 0.12 0.13 0.08 0.08 0.08 0.10 0.20 0.28 0.31 0.34 0.36 0.45 0.53 0.65 0.71 0.77 0.87 0.83 0.74 0.65 0.60 0.52 0.43 0.37 0.34
0.35 0.25 0.15 0.19 0.26 0.32 0.31 0.29 0.22 0.18 0.15 0.19 0.23 0.16 0.06 0.05 0.07 0.09 0.09 0.10 0.11 0.10 0.10 0.09 0.09 0.15 0.26 0.32 0.35 0.37 0.42 0.48 0.58 0.73 0.84 1.00 1.08 0.97 0.80 0.70 0.60 0.45 0.38 0.35
0.25 0.15 0.18 0.24 0.27 0.34 0.34 0.19 0.19 0.22 0.34 0.36 0.31 0.33 0.08 0.04 0.05 0.06 0.08 0.08 0.08 0.10 0.10 0.08 0.08 0.12 0.19 0.24 0.34 0.42 0.42 0.47 0.56 0.71 0.85 0.95 1.07 1.01 0.78 0.63 0.61 0.53 0.42 0.36
0.35 0.18 0.23 0.28 0.19 0.23 0.25 0.18 0.22 0.27 0.42 0.51 0.35 0.39 0.13 0.05 0.06 0.05 0.06 0.07 0.07 0.09 0.10 0.09 0.09 0.11 0.15 0.22 0.31 0.43 0.50 0.52 0.56 0.65 0.77 0.87 1.00 1.00 0.90 0.78 0.68 0.60 0.52 0.43
0.29 0.19 0.24 0.23 0.15 0.17 0.21 0.27 0.36 0.44 0.73 0.96 0.34 0.33 0.19 0.10 0.12 0.09 0.07 0.08 0.09 0.10 0.11 0.10 0.09 0.11 0.16 0.26 0.32 0.44 0.55 0.56 0.59 0.63 0.71 0.77 0.89 1.03 1.02 0.94 0.83 0.68 0.57 0.48
0.32 0.23 0.24 0.22 0.24 0.25 0.40 0.73 1.12 1.21 1.32 0.85 0.17 0.23 0.21 0.10 0.09 0.11 0.13 0.11 0.10 0.09 0.10 0.10 0.09 0.10 0.15 0.26 0.34 0.43 0.56 0.57 0.58 0.61 0.69 0.72 0.75 0.87 0.99 0.93 0.83 0.74 0.64 0.50
0.43 0.30 0.25 0.26 0.31 0.38 0.44 0.69 0.98 0.90 0.58 0.22 0.11 0.18 0.16 0.09 0.06 0.05 0.07 0.09 0.10 0.09 0.09 0.11 0.11 0.10 0.12 0.18 0.28 0.37 0.54 0.54 0.55 0.57 0.61 0.68 0.74 0.76 0.84 0.89 0.80 0.72 0.65 0.53
0.52 0.31 0.16 0.15 0.18 0.27 0.42 0.46 0.43 0.63 0.47 0.28 0.20 0.15 0.11 0.06 0.04 0.03 0.04 0.06 0.08 0.10 0.09 0.09 0.11 0.11 0.11 0.13 0.22 0.31 0.50 0.53 0.49 0.51 0.54 0.62 0.68 0.74 0.76 0.79 0.77 0.71 0.63 0.57
0.65 0.41 0.19 0.17 0.20 0.26 0.36 0.45 0.49 0.81 0.81 0.50 0.29 0.17 0.17 0.11 0.08 0.06 0.06 0.06 0.08 0.08 0.08 0.08 0.10 0.10 0.10 0.11 0.16 0.25 0.39 0.51 0.48 0.47 0.49 0.57 0.60 0.69 0.73 0.78 0.79 0.72 0.66 0.61
0.61 0.60 0.33 0.29 0.40 0.45 0.42 0.54 0.71 0.75 0.59 0.50 0.39 0.28 0.25 0.18 0.14 0.11 0.08 0.07 0.08 0.08 0.08 0.09 0.10 0.11 0.09 0.10 0.14 0.23 0.32 0.45 0.50 0.49 0.47 0.54 0.57 0.63 0.69 0.66 0.71 0.78 0.74 0.68
0.53 0.68 0.50 0.33 0.34 0.36 0.45 0.53 0.63 0.77 0.59 0.33 0.34 0.31 0.22 0.15 0.13 0.12 0.10 0.07 0.06 0.07 0.08 0.08 0.09 0.11 0.10 0.10 0.11 0.18 0.30 0.41 0.46 0.51 0.51 0.48 0.54 0.61 0.65 0.62 0.58 0.63 0.74 0.75
0.76 0.93 0.76 0.54 0.49 0.42 0.56 0.54 0.53 0.54 0.47 0.38 0.33 0.24 0.16 0.12 0.11 0.11 0.10 0.08 0.07 0.06 0.06 0.08 0.09 0.10 0.11 0.10 0.10 0.13 0.21 0.35 0.45 0.53 0.61 0.52 0.53 0.58 0.59 0.59 0.58 0.56 0.62 0.73
0.78 0.89 0.70 0.65 0.60 0.54 0.52 0.46 0.42 0.51 0.58 0.37 0.22 0.17 0.15 0.14 0.13 0.12 0.12 0.11 0.09 0.07 0.05 0.06 0.08 0.10 0.11 0.09 0.09 0.11 0.16 0.26 0.42 0.52 0.63 0.56 0.51 0.55 0.54 0.52 0.54 0.58 0.61 0.71
0.60 0.65 0.34 0.19 0.16 0.23 0.28 0.27 0.29 0.37 0.38 0.30 0.18 0.15 0.18 0.17 0.18 0.18 0.15 0.13 0.10 0.08 0.06 0.05 0.07 0.10 0.11 0.10 0.08 0.09 0.13 0.19 0.33 0.47 0.60 0.57 0.51 0.53 0.54 0.54 0.54 0.59 0.65 0.71
0.57 0.55 0.28 0.14 0.09 0.13 0.17 0.16 0.19 0.20 0.21 0.19 0.14 0.16 0.15 0.16 0.15 0.15 0.15 0.14 0.13 0.10 0.08 0.06 0.07 0.08 0.09 0.10 0.09 0.09 0.11 0.15 0.23 0.36 0.50 0.52 0.50 0.55 0.58 0.56 0.58 0.59 0.61 0.66
0.58 0.55 0.45 0.23 0.10 0.23 0.33 0.22 0.20 0.19 0.19 0.20 0.21 0.21 0.15 0.15 0.15 0.15 0.15 0.14 0.15 0.14 0.11 0.09 0.08 0.08 0.08 0.08 0.09 0.10 0.11 0.13 0.17 0.26 0.39 0.45 0.45 0.47 0.52 0.53 0.56 0.58 0.59 0.59
0.47 0.54 0.62 0.38 0.30 0.55 0.37 0.16 0.18 0.22 0.23 0.22 0.22 0.18 0.15 0.15 0.16 0.14 0.13 0.14 0.15 0.14 0.12 0.10 0.09 0.07 0.06 0.06 0.07 0.09 0.11 0.12 0.14 0.21 0.31 0.39 0.40 0.41 0.43 0.46 0.46 0.49 0.55 0.59
0.27 0.50 0.74 0.59 0.46 0.32 0.18 0.10 0.17 0.27 0.29 0.21 0.17 0.13 0.13 0.13 0.14 0.14 0.13 0.10 0.11 0.13 0.12 0.10 0.09 0.08 0.06 0.06 0.06 0.07 0.10 0.11 0.12 0.19 0.27 0.31 0.36 0.36 0.37 0.39 0.39 0.39 0.43 0.52
0.27 0.49 0.83 0.73 0.54 0.31 0.20 0.08 0.11 0.23 0.35 0.18 0.12 0.11 0.12 0.15 0.20 0.17 0.12 0.08 0.06 0.08 0.09 0.08 0.06 0.06 0.06 0.06 0.06 0.07 0.10 0.11 0.11 0.16 0.23 0.25 0.29 0.30 0.30 0.31 0.34 0.35 0.34 0.38
0.48 0.74 0.88 0.66 0.50 0.22 0.13 0.08 0.13 0.33 0.37 0.16 0.11 0.10 0.11 0.18 0.21 0.15 0.09 0.08 0.06 0.06 0.06 0.06 0.06 0.06 0.05 0.06 0.06 0.07 0.09 0.12 0.10 0.12 0.18 0.21 0.23 0.25 0.25 0.27 0.27 0.32 0.34 0.33
0.42 0.61 0.61 0.53 0.52 0.25 0.11 0.13 0.29 0.34 0.15 0.09 0.08 0.07 0.08 0.10 0.10 0.08 0.08 0.08 0.07 0.05 0.05 0.05 0.05 0.05 0.05 0.05 0.06 0.07 0.08 0.11 0.10 0.10 0.13 0.18 0.21 0.23 0.22 0.25 0.26 0.28 0.32 0.34
0.30 0.45 0.47 0.41 0.31 0.17 0.14 0.19 0.19 0.15 0.11 0.07 0.06 0.05 0.06 0.07 0.07 0.08 0.08 0.08 0.08 0.06 0.04 0.04 0.05 0.05 0.04 0.04 0.04 0.06 0.08 0.10 0.11 0.11 0.12 0.16 0.20 0.23 0.22 0.23 0.26 0.28 0.30 0.35
0.17 0.21 0.29 0.23 0.14 0.12 0.12 0.12 0.11 0.08 0.07 0.06 0.07 0.07 0.07 0.06 0.06 0.08 0.08 0.09 0.10 0.08 0.05 0.04 0.05 0.06 0.05 0.04 0.03 0.04 0.07 0.10 0.12 0.11 0.13 0.15 0.18 0.21 0.22 0.22 0.24 0.28 0.32 0.42
0.13 0.16 0.21 0.19 0.12 0.09 0.07 0.08 0.09 0.07 0.06 0.05 0.05 0.06 0.07 0.07 0.06 0.07 0.08 0.09 0.09 0.09 0.06 0.05 0.05 0.06 0.06 0.05 0.04 0.04 0.06 0.10 0.11 0.13 0.13 0.15 0.16 0.19 0.19 0.21 0.23 0.28 0.30 0.46
0.08 0.13 0.17 0.14 0.09 0.11 0.08 0.05 0.07 0.09 0.08 0.07 0.07 0.06 0.05 0.06 0.06 0.07 0.08 0.08 0.08 0.08 0.06 0.06 0.05 0.06 0.07 0.06 0.06 0.05 0.07 0.10 0.12 0.14 0.16 0.16 0.17 0.20 0.20 0.20 0.23 0.28 0.30 0.35